Location: Riverton
(43.0250°N, 108.3790°W)
Time: 23:40:01
(UTC-06:00)

JAS-2 - Visible Passes

Search period start: 02 June 2015 00:00
Search period end: 12 June 2015 00:00
Orbit: 799 x 1322 km, 98.5° (Epoch: 02 June)

Date Brightness Start Highest point End Pass type
(mag) Time Alt. Az. Time Alt. Az. Time Alt. Az.
02 Jun 10.1 04:45:06 10° NNE 04:50:09 50° E 04:55:32 10° S visible
03 Jun 11.7 03:51:24 10° NE 03:54:38 17° E 03:58:13 10° SE visible
04 Jun 10.2 04:40:06 10° NNE 04:45:08 46° E 04:50:33 10° S visible
05 Jun 11.7 03:46:34 10° NE 03:49:35 16° E 03:53:00 10° SE visible
06 Jun 10.4 04:35:06 10° NNE 04:40:07 43° E 04:45:34 10° S visible
07 Jun 11.8 03:41:45 10° ENE 03:44:33 15° E 03:47:46 10° SE visible
08 Jun 10.5 04:30:06 10° NNE 04:35:07 40° E 04:40:35 10° SSE visible
09 Jun 11.8 03:36:57 10° ENE 03:39:31 14° E 03:42:31 10° ESE visible
10 Jun 10.6 04:25:07 10° NNE 04:30:06 38° E 04:35:36 10° SSE visible
11 Jun 11.9 03:32:11 10° ENE 03:34:29 13° E 03:37:14 10° ESE visible
